Weather History for KIWD - October, 2014

Change the Weather History Date:

Sunday, October 19, 2014

  Actual Average Record
Temperature  
Mean Temperature 45 °F -  
Max Temperature 55 °F 49 °F 78 °F (2000)
Min Temperature 35 °F 34 °F 19 °F (2003)
Degree Days  
Heating Degree Days 20    
Moisture  
Dew Point 38 °F    
Average Humidity 74    
Maximum Humidity 87    
Minimum Humidity 63    
Precipitation  
Precipitation 0.00 in - - ()
Sea Level Pressure  
Sea Level Pressure 29.84 in    
Wind  
Wind Speed 7 mph (SW)    
Max Wind Speed 16 mph    
Max Gust Speed 24 mph    
Visibility 10 miles    
Events      
Averages and records for this station are not official NWS values.
T = Trace of Precipitation, MM = Missing Value Source: NWS Daily Summary

Daily Weather History Graph

Daily Weather History Graph

Search for Another Location

Airport or City:

Trip Planner

Search our weather history database for the weather conditions in past years. The results will help you decide how hot, cold, wet, or windy it might be!

Date:

Astronomy

Oct. 19, 2014 Rise Set
Actual Time 7:23 AM CDT 6:06 PM CDT
Civil Twilight 6:52 AM CDT 6:37 PM CDT
Nautical Twilight 6:17 AM CDT 7:12 PM CDT
Astronomical Twilight 5:42 AM CDT 7:47 PM CDT
Moon 3:02 AM CDT (10/19) 4:10 PM CDT (10/19)
Length of Visible Light 11h 44m
Length of Day
10h 42m
Waning Crescent, 16% of the Moon is Illuminated
Oct 19
Waning Crescent
Oct 23
New
Oct 30
First Quarter
Nov 6
Full
Nov 14
Last Quarter

Hourly Weather History & Observations

Time (CDT) Temp. Windchill Dew Point Humidity Pressure Visibility Wind Dir Wind Speed Gust Speed Precip Events Conditions
12:15 AM 37.4 °F 32.1 °F 30.2 °F 75% 30.06 in 10.0 mi South 6.9 mph - N/A   Clear
12:35 AM 35.6 °F 30.7 °F 30.2 °F 81% 30.06 in 10.0 mi South 5.8 mph - N/A   Clear
12:55 AM 35.6 °F 29.9 °F 30.2 °F 81% 30.05 in 10.0 mi South 6.9 mph - N/A   Clear
1:15 AM 35.6 °F - 28.4 °F 75% 30.05 in 10.0 mi Calm Calm - N/A   Clear
1:35 AM 37.4 °F 31.4 °F 28.4 °F 70% 30.05 in 10.0 mi South 8.1 mph - N/A   Clear
1:55 AM 35.6 °F - 30.2 °F 81% 30.05 in 10.0 mi Calm Calm - N/A   Clear
2:15 AM 37.4 °F 32.8 °F 30.2 °F 75% 30.06 in 10.0 mi South 5.8 mph - N/A   Clear
2:35 AM 35.6 °F - 28.4 °F 75% 30.05 in 10.0 mi Calm Calm - N/A   Clear
2:55 AM 35.6 °F 29.9 °F 28.4 °F 75% 30.05 in 10.0 mi SW 6.9 mph - N/A   Clear
3:15 AM 35.6 °F 32.8 °F 28.4 °F 75% 30.04 in 10.0 mi SW 3.5 mph - N/A   Clear
3:35 AM 35.6 °F 31.7 °F 28.4 °F 75% 30.03 in 10.0 mi SSW 4.6 mph - N/A   Clear
3:55 AM 37.4 °F 34.9 °F 28.4 °F 70% 30.02 in 10.0 mi SSW 3.5 mph - N/A   Clear
4:15 AM 37.4 °F 33.8 °F 28.4 °F 70% 30.01 in 10.0 mi South 4.6 mph - N/A   Clear
4:35 AM 37.4 °F - 28.4 °F 70% 30.00 in 10.0 mi Calm Calm - N/A   Clear
4:55 AM 39.2 °F 33.0 °F 30.2 °F 70% 30.00 in 10.0 mi SSW 9.2 mph - N/A   Clear
5:15 AM 39.2 °F 33.6 °F 30.2 °F 70% 29.99 in 10.0 mi SSW 8.1 mph - N/A   Clear
5:35 AM 39.2 °F 34.2 °F 30.2 °F 70% 29.99 in 10.0 mi WSW 6.9 mph 16.1 mph N/A   Clear
5:55 AM 37.4 °F 30.8 °F 30.2 °F 75% 29.98 in 10.0 mi SW 9.2 mph - N/A   Clear
6:15 AM 39.2 °F 33.0 °F 30.2 °F 70% 29.97 in 10.0 mi SW 9.2 mph 17.3 mph N/A   Clear
6:35 AM 39.2 °F 31.2 °F 30.2 °F 70% 29.96 in 10.0 mi SSW 13.8 mph 19.6 mph N/A   Clear
6:55 AM 39.2 °F 31.2 °F 30.2 °F 70% 29.95 in 10.0 mi SSW 13.8 mph 21.9 mph N/A   Scattered Clouds
7:15 AM 39.2 °F 33.0 °F 30.2 °F 70% 29.95 in 10.0 mi SSW 9.2 mph 16.1 mph N/A   Overcast
7:35 AM 39.2 °F 33.0 °F 32.0 °F 75% 29.94 in 10.0 mi South 9.2 mph 17.3 mph N/A   Overcast
7:55 AM 39.2 °F 33.6 °F 32.0 °F 75% 29.93 in 10.0 mi South 8.1 mph 20.7 mph N/A   Mostly Cloudy
8:15 AM 41.0 °F 36.4 °F 30.2 °F 65% 29.93 in 10.0 mi SSW 6.9 mph - N/A   Clear
8:35 AM 41.0 °F 35.2 °F 33.8 °F 76% 29.90 in 10.0 mi South 9.2 mph - N/A   Scattered Clouds
8:55 AM 41.0 °F 33.9 °F 33.8 °F 76% 29.89 in 10.0 mi South 12.7 mph 21.9 mph N/A   Mostly Cloudy
9:15 AM 41.0 °F 33.5 °F 33.8 °F 76% 29.88 in 10.0 mi South 13.8 mph 20.7 mph N/A   Scattered Clouds
9:35 AM 42.8 °F 37.5 °F 35.6 °F 76% 29.88 in 10.0 mi SSW 9.2 mph 16.1 mph N/A   Scattered Clouds
9:55 AM 42.8 °F 38.0 °F 35.6 °F 76% 29.87 in 10.0 mi SSW 8.1 mph 16.1 mph N/A   Mostly Cloudy
10:15 AM 44.6 °F 38.4 °F 37.4 °F 76% 29.85 in 10.0 mi South 12.7 mph 23.0 mph N/A   Overcast
10:35 AM 44.6 °F 39.2 °F 37.4 °F 76% 29.83 in 10.0 mi SSW 10.4 mph 17.3 mph N/A   Mostly Cloudy
10:55 AM 46.4 °F 42.4 °F 37.4 °F 71% 29.82 in 10.0 mi SSW 8.1 mph 16.1 mph N/A   Clear
11:15 AM 48.2 °F - 39.2 °F 71% 29.81 in 10.0 mi SSW 15.0 mph 19.6 mph N/A   Clear
11:35 AM 48.2 °F - 39.2 °F 71% 29.79 in 10.0 mi SSW 13.8 mph 18.4 mph N/A   Mostly Cloudy
11:55 AM 48.2 °F - 39.2 °F 71% 29.78 in 10.0 mi SSW 15.0 mph 21.9 mph N/A   Overcast
12:15 PM 48.2 °F - 39.2 °F 71% 29.79 in 10.0 mi SW 11.5 mph - N/A   Overcast
12:35 PM 48.2 °F - 39.2 °F 71% 29.78 in 10.0 mi SSW 10.4 mph - N/A   Overcast
12:55 PM 48.2 °F - 41.0 °F 76% 29.78 in 10.0 mi SW 10.4 mph - N/A   Overcast
1:15 PM 48.2 °F - 42.8 °F 82% 29.77 in 10.0 mi SW 6.9 mph - N/A   Overcast
1:35 PM 48.2 °F - 44.6 °F 87% 29.75 in 10.0 mi SSW 10.4 mph - N/A   Mostly Cloudy
1:55 PM 50.0 °F - 42.8 °F 76% 29.74 in 10.0 mi SW 11.5 mph 18.4 mph N/A   Partly Cloudy
2:15 PM 51.8 °F - 44.6 °F 76% 29.73 in 10.0 mi SW 9.2 mph - N/A   Scattered Clouds
2:35 PM 53.6 °F - 44.6 °F 72% 29.72 in 10.0 mi SSW 12.7 mph 18.4 mph N/A   Mostly Cloudy
2:55 PM 53.6 °F - 42.8 °F 67% 29.72 in 10.0 mi SSW 10.4 mph - N/A   Partly Cloudy
3:15 PM 53.6 °F - 44.6 °F 72% 29.71 in 10.0 mi SSW 12.7 mph - N/A   Scattered Clouds
3:35 PM 55.4 °F - 42.8 °F 63% 29.70 in 10.0 mi WSW 12.7 mph - N/A   Scattered Clouds
3:55 PM 55.4 °F - 42.8 °F 63% 29.70 in 10.0 mi SW 15.0 mph 21.9 mph N/A   Scattered Clouds
4:15 PM 55.4 °F - 42.8 °F 63% 29.70 in 10.0 mi WSW 15.0 mph 24.2 mph N/A   Scattered Clouds
4:35 PM 55.4 °F - 42.8 °F 63% 29.70 in 10.0 mi SW 16.1 mph 19.6 mph N/A   Mostly Cloudy
4:55 PM 55.4 °F - 42.8 °F 63% 29.70 in 10.0 mi SW 12.7 mph 18.4 mph N/A   Mostly Cloudy
5:15 PM 55.4 °F - 44.6 °F 67% 29.70 in 10.0 mi WSW 13.8 mph 19.6 mph N/A   Partly Cloudy
5:35 PM 55.4 °F - 44.6 °F 67% 29.71 in 10.0 mi WSW 6.9 mph - N/A   Clear
5:55 PM 53.6 °F - 42.8 °F 67% 29.72 in 10.0 mi SW 4.6 mph - N/A   Clear
6:15 PM 53.6 °F - 42.8 °F 67% 29.72 in 10.0 mi SW 5.8 mph - N/A   Clear
6:35 PM 51.8 °F - 42.8 °F 71% 29.73 in 10.0 mi SW 4.6 mph - N/A   Mostly Cloudy
6:55 PM 51.8 °F - 42.8 °F 71% 29.73 in 10.0 mi SW 4.6 mph - N/A   Mostly Cloudy
7:15 PM 48.2 °F - 42.8 °F 82% 29.73 in 10.0 mi SW 3.5 mph - N/A   Partly Cloudy
7:35 PM 46.4 °F 44.3 °F 42.8 °F 87% 29.72 in 10.0 mi SSW 4.6 mph - N/A   Partly Cloudy
7:55 PM 48.2 °F - 44.6 °F 87% 29.72 in 10.0 mi SW 6.9 mph - N/A   Scattered Clouds
8:15 PM 51.8 °F - 44.6 °F 76% 29.72 in 10.0 mi SW 5.8 mph - N/A   Overcast
8:35 PM 51.8 °F - 44.6 °F 76% 29.72 in 10.0 mi SW 6.9 mph - N/A   Overcast
8:55 PM 51.8 °F - 44.6 °F 76% 29.71 in 10.0 mi SW 4.6 mph - N/A   Overcast
9:15 PM 50.0 °F - 44.6 °F 82% 29.71 in 10.0 mi SW 4.6 mph - N/A   Overcast
9:35 PM 50.0 °F - 44.6 °F 82% 29.71 in 10.0 mi Calm Calm - N/A   Overcast
9:55 PM 50.0 °F - 44.6 °F 82% 29.72 in 10.0 mi West 3.5 mph - N/A   Overcast
10:15 PM 48.2 °F - 42.8 °F 82% 29.72 in 10.0 mi Calm Calm - N/A   Overcast
10:35 PM 50.0 °F - 44.6 °F 82% 29.72 in 10.0 mi West 5.8 mph - N/A   Overcast
10:55 PM 51.8 °F - 44.6 °F 76% 29.73 in 10.0 mi West 5.8 mph - N/A   Overcast
11:15 PM 51.8 °F - 44.6 °F 76% 29.73 in 10.0 mi WNW 4.6 mph - N/A   Overcast
11:35 PM 51.8 °F - 44.6 °F 76% 29.74 in 10.0 mi NW 5.8 mph - N/A   Overcast
11:55 PM 51.8 °F - 44.6 °F 76% 29.74 in 10.0 mi WNW 5.8 mph - N/A   Overcast